Weather observations for the past three days for
Houghton County Memorial Airport
Imperial (Metric)
Date Time (edt) Wind (mph) Vis. (mi.) Weather Sky Cond. Temperature (ºF) Relative Humidity Wind Chill (°F) Heat Index (°F) Pressure Precipitation (in)
Air Dwpt 6 hour altimeter (in) sea level (mb) 1 hr 3 hr 6 hr
Max. Min.
19 07:53 W 12 10.00 Fair CLR 64.9 54 64.9 55 68% 30.1 1019.0
19 06:53 W 9 10.00 Fair CLR 63 53.1 70% 30.09 1018.7
19 05:53 W 9 10.00 Mostly Cloudy BKN060 64 52 65% 30.08 1018.3
19 04:53 W 7 10.00 Mostly Cloudy BKN060 63 52 68% 30.08 1018.3
19 03:53 W 7 10.00 Fair CLR 61 51.1 70% 30.09 1018.5
19 02:53 NW 3 10.00 Fair CLR 57 50 78% 30.09 1018.8
19 01:53 NW 5 10.00 Fair CLR 55 48.9 71.1 55 80% 30.1 1019.1
19 00:53 NW 5 10.00 Fair CLR 57 48 72% 30.11 1019.4
18 23:53 NW 6 10.00 Fair CLR 59 48.9 69% 30.1 1019.3
18 22:53 W 6 10.00 Fair CLR 60.1 48.9 67% 30.11 1019.5
18 21:53 W 7 10.00 Fair CLR 64 48 56% 30.11 1019.5
18 20:53 W 6 10.00 Fair CLR 68 46.9 47% 30.12 1019.8
18 19:53 W 10 10.00 Fair CLR 71.1 46.9 73.9 71.1 42% 30.13 1020.1
18 18:53 W 14 10.00 Fair CLR 73 46.9 40% 30.14 1020.7
18 17:53 W 17 10.00 Fair CLR 73 48 41% 30.15 1021.0
18 16:53 W 15 10.00 Fair CLR 73 50 44% 30.15 1021.0
18 15:53 W 15 10.00 Fair CLR 73 51.1 46% 30.15 1021.0
18 14:53 W 12 10.00 Fair CLR 73 53.1 50% 30.16 1021.3
18 13:53 NW 12 10.00 Fair CLR 73 51.1 73.9 57.9 46% 30.16 1021.4
18 12:53 W 13 10.00 Fair CLR 73 48.9 43% 30.17 1021.5
18 11:53 W 8 10.00 Fair CLR 71.1 52 51% 30.18 1021.8
18 10:53 NW 6 10.00 Fair CLR 69.1 51.1 53% 30.18 1022.1
18 09:53 W 7 10.00 Fair CLR 66.9 52 59% 30.18 1022.0
18 08:53 W 5 10.00 Fair CLR 63 53.1 70% 30.19 1022.2
18 07:53 NW 5 10.00 Fair CLR 57.9 53.1 57.9 46 84% 30.18 1022.0
18 06:53 NW 5 10.00 Fair CLR 48 46 93% 47 30.17 1021.9
18 05:53 NW 3 10.00 Fair CLR 48 45 89% 30.15 1021.4
18 04:53 NW 5 10.00 Fair CLR 48 46 93% 47 30.13 1020.7
18 03:53 NW 3 10.00 Fair CLR 50 46.9 89% 30.13 1020.6
18 02:53 NW 3 1.50 Fog/Mist CLR 48.9 46.9 93% 30.13 1020.4
18 01:53 NW 5 10.00 Fair CLR 52 48.9 63 52 89% 30.13 1020.6
18 00:53 N 5 10.00 A Few Clouds FEW050 53.1 50 89% 30.13 1020.5
17 23:53 NW 6 10.00 Fair CLR 52 48.9 89% 30.12 1020.4
17 22:53 NW 3 10.00 Fair CLR 53.1 50 89% 30.12 1020.3
17 21:53 Calm 10.00 Fair CLR 57.9 51.1 78% 30.12 1020.1
17 20:53 NW 8 10.00 Fair CLR 62.1 51.1 67% 30.11 1019.9
17 19:53 NW 9 10.00 Fair CLR 63 50 66.9 62.1 63% 30.11 1019.7
17 18:53 NW 8 10.00 Fair CLR 64.9 50 59% 30.1 1019.3
17 17:53 N 9 10.00 A Few Clouds FEW024 66 51.1 59% 30.09 1018.9
17 16:53 N 13 10.00 A Few Clouds FEW028 66 51.1 59% 30.09 1018.8
17 15:53 NW 10 10.00 Mostly Cloudy FEW022 SCT033 BKN050 64 52 65% 30.09 1018.9
17 14:53 N 15 G 24 10.00 Mostly Cloudy SCT025 BKN031 BKN050 64 52 65% 30.07 1018.3
17 13:53 N 17 G 26 10.00 Overcast SCT020 BKN026 OVC046 63 51.1 63 55.9 65% 30.06 1017.9 0.03
17 12:53 N 13 G 28 10.00 Overcast BKN015 OVC019 61 53.1 75% 30.04 1017.2
17 11:53 NW 15 G 25 9.00 Overcast BKN010 OVC016 57 54 90% 30.02 1016.5 0.01
17 10:53 NW 17 G 25 10.00 Overcast BKN012 OVC018 59 53.1 81% 30 1016.0 0.02
17 09:53 NW 12 G 21 10.00 Overcast BKN010 OVC014 57.9 54 87% 29.98 1015.3
17 08:53 NW 15 G 24 3.00 Light Rain Fog/Mist SCT007 OVC012 55.9 53.1 90% 29.97 1015.0 0.02
17 07:53 NW 14 10.00 Overcast SCT012 BKN018 OVC033 57 52 61 57 83% 29.95 1014.1 0.01
17 06:53 NW 10 10.00 Overcast SCT016 OVC023 57 51.1 81% 29.93 1013.3
17 05:53 NW 9 10.00 Overcast BKN020 OVC025 57 52 83% 29.91 1012.5 0.01
17 04:53 NW 9 6.00 Rain BKN015 BKN020 OVC047 57.9 53.1 84% 29.89 1011.9
17 03:53 NW 10 10.00 Partly Cloudy SCT075 57.9 53.1 84% 29.88 1011.5
17 02:53 NW 10 10.00 Overcast OVC075 59 53.1 81% 29.88 1011.6
17 01:53 NW 13 10.00 Overcast OVC075 61 54 68 59 78% 29.87 1011.3
17 00:53 NW 9 10.00 Overcast OVC070 62.1 53.1 73% 29.86 1010.9
16 23:53 NW 10 10.00 Overcast OVC065 62.1 54 75% 29.85 1010.5
16 22:53 NW 9 10.00 Fair CLR 59 55.9 90% 29.84 1010.3
16 21:53 NW 9 10.00 Mostly Cloudy BKN080 61 55.9 84% 29.84 1010.3
16 20:53 W 8 10.00 Overcast BKN060 OVC080 64.9 55 70% 29.84 1010.3
16 19:53 W 8 10.00 Overcast OVC070 68 53.1 73 66.9 59% 29.84 1010.3
16 18:53 NW 13 G 21 10.00 Fair CLR 70 55 59% 29.84 1010.2
16 17:53 NW 16 10.00 Fair CLR 72 54 53% 29.82 1009.5
16 16:53 NW 17 G 25 10.00 Fair CLR 73 54 51% 29.81 1009.4
16 15:53 W 16 10.00 Fair CLR 72 57 59% 29.81 1009.4
16 14:53 NW 14 10.00 A Few Clouds FEW028 73 57.9 59% 29.8 1008.9
16 13:53 NW 16 10.00 Fair CLR 71.1 55.9 72 63 59% 29.8 1009.0
16 12:53 NW 18 G 25 10.00 Partly Cloudy SCT080 71.1 57.9 63% 29.8 1008.8
16 11:53 NW 17 10.00 Fair CLR 70 57.9 66% 29.78 1008.2
16 10:53 W 16 G 22 10.00 Fair CLR 69.1 59 70% 29.77 1007.9
16 09:53 NW 15 10.00 Fair CLR 68 59 73% 29.75 1007.2
16 08:53 NW 13 10.00 Fair CLR 66 61 84% 29.74 1006.8
Date Time (edt) Wind (mph) Vis. (mi.) Weather Sky Cond. Air Dwpt Max. Min. Relative Humidity Wind Chill (°F) Heat Index (°F) altimeter (in) sea level (mb) 1 hr 3 hr 6 hr
6 hour
Temperature (ºF) Pressure Precipitation (in)